Location: ?????????
(53.2086°N, 54.0693°E)
Time: 08:17:49
(UTC+00:00)

Cosmos 2297 - Pass Details

Date: 08 December 2019
Orbit: 837 x 858 km, 71.0° (Epoch: 27 January)

Event Time Altitude Azimuth Distance (km) Brightness Sun altitude
Rises 13:24:35 0° 328° (NNW) 3,438 7.0 -10.8°
Reaches altitude 10° 13:27:16 10° 337° (NNW) 2,496 6.2 -11.2°
Maximum altitude 13:32:33 37° 44° (NE) 1,310 4.3 -11.9°
Drops below altitude 10° 13:37:47 10° 111° (ESE) 2,472 5.7 -12.6°
Enters shadow 13:38:51 - 115° (ESE) 2,842 6.0 -12.8°
